Location: Dallas
(32.7833°N, 96.8000°W)
Time: 01:31:03
(UTC-06:00)

Envisat - Visible Passes

Search period start: 07 December 2021 00:00
Search period end: 17 December 2021 00:00
Orbit: 764 x 766 km, 98.2° (Epoch: 06 December)

Date Brightness Start Highest point End Pass type
(mag) Time Alt. Az. Time Alt. Az. Time Alt. Az.
07 Dec 5.3 04:27:57 10° NE 04:31:51 22° E 04:35:44 10° SE visible
07 Dec 3.6 06:06:20 10° N 06:10:51 33° WNW 06:15:21 10° SW visible
08 Dec 2.8 05:29:04 10° N 05:34:09 81° WNW 05:39:13 10° SSW visible
09 Dec 4.2 04:52:29 10° NNE 04:57:16 41° E 05:02:01 10° SSE visible
09 Dec 4.2 06:32:27 10° NNW 06:35:55 19° WNW 06:39:23 10° WSW visible
09 Dec 5.8 17:42:26 10° SW 17:46:15 21° W 17:50:06 10° NW visible
10 Dec 5.6 04:16:59 10° NE 04:20:13 17° E 04:23:26 10° SE visible
10 Dec 3.3 05:54:34 10° N 05:59:21 43° WNW 06:04:08 10° SW visible
11 Dec 3.0 05:17:31 10° NNE 05:22:36 77° ESE 05:27:39 10° S visible
11 Dec 6.4 18:10:21 10° WSW 18:11:46 11° W 18:13:10 10° WNW visible
12 Dec 4.7 04:41:11 10° NE 04:45:40 31° E 04:50:08 10° SSE visible
12 Dec 4.0 06:20:27 10° NNW 06:24:28 24° WNW 06:28:29 10° WSW visible
13 Dec 5.9 04:06:25 10° ENE 04:08:33 13° E 04:10:42 10° ESE visible
13 Dec 3.0 05:42:52 10° N 05:47:51 57° WNW 05:52:48 10° SSW visible
14 Dec 3.5 05:06:02 10° NNE 05:11:02 59° E 05:16:02 10° S visible
14 Dec 4.6 06:47:07 10° NW 06:49:30 13° WNW 06:51:52 10° W visible
14 Dec 6.0 17:57:15 10° SW 18:00:06 15° W 18:02:58 10° WNW visible
15 Dec 5.1 04:30:00 10° NE 04:34:03 24° E 04:38:06 10° SSE visible
15 Dec 3.7 06:08:35 10° N 06:13:00 31° WNW 06:17:25 10° SW visible
16 Dec 2.8 05:31:15 10° N 05:36:19 75° WNW 05:41:23 10° SSW visible
